DW8587 Weather Reports


time (UTC)temp
C
wind
direction
speed
KPH
gust
KPH
rain 1hr
cm
rain 24hr
cm
rain mn
cm
humidity
%
barometer
mb
20260902150047 31 303 4.8 11.3 0.00 0.00 0.00 52 1015.5
20260902144546 30 272 1.6 11.3 0.00 0.00 0.00 54 1015.6
20260902143047 30 343 4.8 9.7 0.00 0.00 0.00 51 1015.6
20260902141543 30 296 3.2 16.1 0.00 0.00 0.00 53 1015.7
20260902140041 30 294 4.8 14.5 0.00 0.00 0.00 53 1015.8
20260902134539 30 167 1.6 9.7 0.00 0.00 0.00 53 1015.9
20260902133038 30 144 4.8 11.3 0.00 0.00 0.00 52 1015.9
20260902131535 30 250 0.0 11.3 0.00 0.00 0.00 53 1016.1
20260902130030 29 319 3.2 8.0 0.00 0.00 0.00 56 1016.4
20260902124528 28 175 3.2 8.0 0.00 0.00 0.00 59 1016.5
20260902123028 28 118 1.6 4.8 0.00 0.00 0.00 60 1016.7
20260902121525 28 255 1.6 4.8 0.00 0.00 0.00 58 1016.8
20260902120025 28 327 0.0 6.4 0.00 0.00 0.00 59 1017.0
20260902114523 28 211 4.8 9.7 0.00 0.00 0.00 59 1017.1
20260902113023 28 205 4.8 14.5 0.00 0.00 0.00 60 1017.2
20260902111521 28 106 1.6 9.7 0.00 0.00 0.00 60 1017.5
20260902110035 28 133 3.2 11.3 0.00 0.00 0.00 62 1017.7
20260902104532 27 311 0.0 11.3 0.00 0.00 0.00 63 1017.8
20260902103035 27 248 3.2 8.0 0.00 0.00 0.00 63 1017.8
20260902101517 28 137 3.2 11.3 0.00 0.00 0.00 61 1017.9
20260902100014 27 142 4.8 9.7 0.00 0.00 0.00 63 1018.1
20260902094511 27 131 4.8 11.3 0.00 0.00 0.00 64 1018.2
20260902093010 26 53 0.0 6.4 0.00 0.00 0.00 65 1018.2
20260902091510 26 137 0.0 6.4 0.00 0.00 0.00 66 1018.3
20260902090018 26 144 6.4 11.3 0.00 0.00 0.00 65 1018.4
20260902084505 26 153 3.2 11.3 0.00 0.00 0.00 65 1018.2
20260902083002 25 140 3.2 6.4 0.00 0.00 0.00 69 1018.1
20260902081503 25 141 4.8 8.0 0.00 0.00 0.00 70 1018.2
20260902074559 25 130 3.2 8.0 0.00 0.00 0.00 69 1017.9
20260902073057 25 51 3.2 8.0 0.00 0.00 0.00 71 1018.0
20260902071554 24 40 3.2 8.0 0.00 0.00 0.00 73 1018.1
20260902070050 24 44 3.2 9.7 0.00 0.00 0.00 74 1017.8
20260902064545 23 32 1.6 4.8 0.00 0.00 0.00 77 1017.7
20260902063053 23 355 4.8 6.4 0.00 0.00 0.00 79 1017.7
20260902061557 22 348 3.2 6.4 0.00 0.00 0.00 82 1017.5
20260902060039 21 61 3.2 8.0 0.00 0.00 0.00 84 1017.6
20260902054528 20 42 4.8 8.0 0.00 0.00 0.00 85 1017.5
20260902053022 20 40 3.2 6.4 0.00 0.00 0.00 86 1017.4
20260902051519 20 30 3.2 9.7 0.00 0.00 0.00 86 1017.2
20260902050021 20 45 4.8 8.0 0.00 0.00 0.00 86 1017.2
20260902044524 20 5 3.2 9.7 0.00 0.00 0.00 86 1017.2
20260902043014 20 34 3.2 6.4 0.00 0.00 0.00 86 1017.2
20260902041513 20 27 3.2 8.0 0.00 0.00 0.00 86 1017.0
20260902040012 20 42 6.4 9.7 0.00 0.00 0.00 86 1017.0
20260902034511 20 350 3.2 8.0 0.00 0.00 0.00 85 1016.9
20260902033010 20 5 3.2 8.0 0.00 0.00 0.00 85 1017.1
20260902031526 20 39 3.2 9.7 0.00 0.00 0.00 85 1017.1
20260902030008 20 34 3.2 4.8 0.00 0.00 0.00 85 1017.0
20260902024507 20 348 3.2 8.0 0.00 0.00 0.00 85 1017.0
20260902023014 20 9 3.2 6.4 0.00 0.00 0.00 85 1017.1
20260902021507 21 40 4.8 6.4 0.00 0.00 0.00 84 1017.0
20260902020005 21 23 3.2 4.8 0.00 0.00 0.00 84 1016.9
20260902014502 21 36 3.2 8.0 0.00 0.00 0.00 84 1016.9
20260902013002 21 36 3.2 6.4 0.00 0.00 0.00 83 1016.9
20260902011501 21 35 3.2 8.0 0.00 0.00 0.00 83 1016.9
20260902010105 21 34 4.8 8.0 0.00 0.00 0.00 83 1016.9
20260902004559 21 36 4.8 8.0 0.00 0.00 0.00 83 1017.0
20260902003058 21 40 1.6 8.0 0.00 0.00 0.00 83 1017.0
20260902001603 21 355 4.8 6.4 0.00 0.00 0.00 82 1017.0
20260902000057 21 342 3.2 6.4 0.00 0.00 0.00 82 1017.0
20260901234604 22 37 6.4 9.7 0.00 0.00 0.00 82 1017.1
20260901233053 22 35 3.2 8.0 0.00 0.00 0.00 81 1016.9
20260901231557 22 40 3.2 6.4 0.00 0.00 0.00 80 1017.0
20260901230104 22 39 6.4 9.7 0.00 0.00 0.00 80 1017.0
20260901224551 22 40 4.8 8.0 0.00 0.00 0.00 80 1017.0
20260901223050 22 346 4.8 6.4 0.00 0.00 0.00 80 1017.0
20260901221604 22 28 3.2 4.8 0.00 0.00 0.00 81 1017.0
20260901220046 22 5 3.2 8.0 0.00 0.00 0.00 81 1016.8
20260901214545 22 23 4.8 8.0 0.00 0.00 0.00 81 1016.8
20260901213051 22 24 4.8 8.0 0.00 0.00 0.00 81 1016.9
20260901211545 22 42 3.2 6.4 0.00 0.00 0.00 81 1016.8
20260901210044 22 42 3.2 6.4 0.00 0.00 0.00 80 1016.8
20260901204544 23 38 4.8 8.0 0.00 0.00 0.00 79 1016.8
20260901203046 23 42 3.2 8.0 0.00 0.00 0.00 78 1016.7
20260901201548 23 40 3.2 6.4 0.00 0.00 0.00 77 1016.7
20260901200041 23 44 4.8 8.0 0.00 0.00 0.00 77 1016.6
20260901194541 23 37 0.0 0.0 0.00 0.00 0.00 76 1016.6
20260901193040 24 37 1.6 6.4 0.00 0.00 0.00 76 1016.3
20260901191543 24 44 6.4 9.7 0.00 0.00 0.00 75 1016.2
20260901190040 25 39 4.8 8.0 0.00 0.00 0.00 73 1016.0
20260901184539 25 40 3.2 4.8 0.00 0.00 0.00 72 1015.8
20260901183059 26 40 3.2 6.4 0.00 0.00 0.00 70 1015.7
20260901181539 26 49 3.2 4.8 0.00 0.00 0.00 68 1015.6
20260901180038 27 114 0.0 0.0 0.00 0.00 0.00 66 1015.5
20260901174537 27 114 0.0 0.0 0.00 0.00 0.00 64 1015.5
20260901173049 27 114 0.0 3.2 0.00 0.00 0.00 62 1015.3
20260901171549 27 114 1.6 4.8 0.00 0.00 0.00 61 1015.1
20260901170047 28 89 1.6 4.8 0.00 0.00 0.00 61 1015.2
20260901164535 28 72 3.2 9.7 0.00 0.00 0.00 60 1015.3
20260901163051 28 96 4.8 8.0 0.00 0.00 0.00 58 1015.3
20260901161541 28 44 4.8 9.7 0.00 0.00 0.00 56 1015.3
20260901160038 29 49 3.2 6.4 0.00 0.00 0.00 56 1015.3
20260901154534 29 78 4.8 11.3 0.00 0.00 0.00 56 1015.4
20260901153033 29 194 6.4 14.5 0.00 0.00 0.00 53 1015.4
20260901151539 28 155 6.4 12.9 0.00 0.00 0.00 55 1015.4